Spokane, WA
on Saturday, January 12, 2013

Saturday
Previous Day Next Day
Daily Summary
 ActualAverageRecord
Temperature
Mean Temperature °F 29°F  
Max Temperature 21°F 34°F 53°F (1983)
Min Temperature 5°F 24°F -7°F (1949)
Degree Days
Heating Degree Days 52 36  
Month to date heating degree days 480 442  
Since 1 July heating degree days 2905 3276  
Cooling Degree Days 0 0  
Month to date cooling degree days 0 0  
Year to date cooling degree days 0 0  
Moisture
Dew Point 14°F   
Average Humidity 67    
Maximum Humidity 100    
Minimum Humidity 33    
Precipitation
Precipitation T in 0.06 in 0.63 in (1958)
Month to date precipitation 0.98 0.77  
Year to date precipitation 0.98 0.77  
Snow
Snow T in 0.50 in 4.00 in (1921)
Month to date snowfall 11.0 5.6  
Since 1 July snowfall 35.0 27.7  
Snow Depth 1.00 in   
Wind
Wind Speed 5 mph   
Max Wind Speed 13 mph   
Max Gust Speed 15 mph   
Visibility 6 miles   
Events Snow   

Key: T is trace of precipitation, MM is missing value
Source: NWS Daily Summary
Time(PST)TemperatureDew PointHumidity Pressure Visibility Wind DirectionWind SpeedGust SpeedPrecipitationEvents Conditions
12:53 AM 19.9°F 18.0°F 92% 30.26 in 0.5 miles South 8.1 mph - N/A   Overcast
1:05 AM 19.4°F 17.6°F 93% 30.17 in 1.0 miles South 8.1 mph - N/A   Overcast
1:31 AM 19.4°F 17.6°F 93% 30.17 in 6.0 miles South 6.9 mph - N/A   Overcast
1:53 AM 21.0°F 18.0°F 88% 30.26 in 7.0 miles South 5.8 mph - N/A   Overcast
2:53 AM 21.0°F 19.0°F 92% 30.25 in 7.0 miles SSW 11.5 mph - N/A   Overcast
3:53 AM 21.0°F 18.0°F 88% 30.25 in 7.0 miles SSW 9.2 mph - 0.00 in   Overcast
4:53 AM 19.9°F 18.0°F 92% 30.26 in 7.0 miles SW 8.1 mph - N/A   Overcast
5:53 AM 19.9°F 18.0°F 92% 30.28 in 7.0 miles SW 5.8 mph - N/A   Overcast
6:53 AM 19.9°F 18.0°F 92% 30.29 in 5.0 miles WSW 5.8 mph - N/A   Overcast
7:16 AM 19.4°F 17.6°F 93% 30.18 in 1.0 miles West 4.6 mph - 0.00 in   Overcast
7:53 AM 19.4°F 18.0°F 94% 30.25 in 1.0 miles WSW 5.8 mph - 0.00 in   Overcast
8:45 AM 19.4°F 17.6°F 93% 30.19 in 1.0 miles West 4.6 mph - N/A   Overcast
8:53 AM 19.9°F 19.0°F 96% 30.31 in 1.0 miles WNW 4.6 mph - N/A   Overcast
9:53 AM 21.0°F 19.0°F 92% 30.32 in 2.0 miles WNW 3.5 mph - 0.00 in   Overcast
10:06 AM 21.2°F 17.6°F 86% 30.21 in 3.0 miles NNW 6.9 mph - N/A   Overcast
10:53 AM 19.0°F 17.1°F 92% 30.32 in 8.0 miles NNW 4.6 mph - N/A   Overcast
11:53 AM 19.0°F 16.0°F 88% 30.32 in 8.0 miles North 5.8 mph - N/A   Overcast
12:23 PM 19.4°F 15.8°F 86% 30.20 in 1.5 miles North 4.6 mph - 0.00 in Snow Light Snow
12:31 PM 19.4°F 15.8°F 86% 30.21 in 5.0 miles North 5.8 mph - 0.00 in Snow Light Snow
12:53 PM 18.0°F 15.1°F 88% 30.32 in 9.0 miles North 3.5 mph - 0.00 in   Overcast
1:53 PM 19.0°F 14.0°F 81% 30.32 in 10.0 miles North 5.8 mph - N/A   Overcast
2:53 PM 18.0°F 14.0°F 84% 30.33 in 10.0 miles ENE 3.5 mph - N/A   Mostly Cloudy
3:24 PM 17.6°F 12.2°F 79% 30.22 in 10.0 miles Calm Calm - N/A   Overcast
3:53 PM 18.0°F 14.0°F 84% 30.33 in 10.0 miles Calm Calm - N/A   Overcast
4:53 PM 14.0°F 10.9°F 88% 30.36 in 10.0 miles West 3.5 mph - N/A   Mostly Cloudy
5:53 PM 12.0°F 9.0°F 88% 30.37 in 9.0 miles Calm Calm - N/A   Mostly Cloudy
6:41 PM 8.6°F 5.0°F 85% 30.25 in 10.0 miles SW 3.5 mph - N/A   Mostly Cloudy
6:53 PM 10.9°F 8.1°F 88% 30.37 in 10.0 miles South 3.5 mph - N/A   Mostly Cloudy
7:53 PM 5.0°F 1.9°F 87% 30.33 in 10.0 miles SW 5.8 mph - N/A   Mostly Cloudy
8:53 PM 7.0°F 3.0°F 84% 30.37 in 10.0 miles WSW 4.6 mph - N/A   Mostly Cloudy
9:35 PM 10.4°F 5.0°F 79% 30.24 in 10.0 miles SW 3.5 mph - N/A   Overcast
9:53 PM 9.0°F 6.1°F 88% 30.37 in 10.0 miles WSW 3.5 mph - N/A   Overcast
10:53 PM 15.1°F 12.0°F 88% 30.36 in 10.0 miles SE 3.5 mph - N/A   Overcast
11:53 PM 16.0°F 12.0°F 84% 30.35 in 7.0 miles Calm Calm - N/A   Overcast
Moon Phase
Jan. 12 Jan. 18 Jan. 26 Feb. 03 Feb. 10
Sunrise:07:35 AM (PST) Moon Rise:07:49 AM (PST)1/12
Sunset:04:22 PM (PST) Moon Set:06:06 PM (PST)1/12

Copyright © 2014 The Weather Underground, Inc.